QPF
0.00 0.00 0.01 0.01 0.01 0.01 0.01 0.02 0.02 0.01 0.01 0.01 0.02 0.02 0.03 0.04 0.05 0.06 0.07 0.08 0.09 0.08 0.09 0.07 0.05 0.05 0.05 0.08 0.11 0.10 0.09 0.08 0.08 0.08 0.11 0.12 0.12 0.12 0.10 0.09 0.08 0.07 0.06 0.05
0.00 0.00 0.01 0.01 0.01 0.00 0.00 0.01 0.01 0.01 0.01 0.01 0.01 0.01 0.02 0.02 0.03 0.05 0.06 0.07 0.08 0.08 0.07 0.07 0.06 0.05 0.05 0.06 0.07 0.09 0.10 0.11 0.11 0.10 0.12 0.13 0.14 0.13 0.11 0.09 0.08 0.08 0.07 0.06
0.01 0.00 0.01 0.01 0.01 0.01 0.01 0.01 0.02 0.02 0.01 0.01 0.01 0.01 0.01 0.02 0.03 0.04 0.05 0.06 0.07 0.07 0.07 0.07 0.07 0.06 0.06 0.06 0.05 0.07 0.08 0.09 0.11 0.13 0.12 0.11 0.12 0.11 0.10 0.09 0.08 0.08 0.08 0.07
0.01 0.00 0.01 0.01 0.00 0.01 0.01 0.01 0.01 0.02 0.02 0.02 0.02 0.02 0.02 0.03 0.04 0.04 0.05 0.06 0.07 0.07 0.07 0.07 0.07 0.07 0.06 0.06 0.06 0.06 0.07 0.08 0.09 0.11 0.10 0.09 0.07 0.07 0.07 0.07 0.07 0.07 0.06 0.06
0.01 0.01 0.01 0.01 0.00 0.01 0.02 0.01 0.02 0.02 0.02 0.01 0.02 0.01 0.01 0.02 0.04 0.06 0.07 0.06 0.07 0.07 0.06 0.05 0.05 0.05 0.04 0.05 0.05 0.06 0.06 0.07 0.09 0.09 0.08 0.07 0.06 0.05 0.05 0.05 0.06 0.06 0.05 0.04
0.02 0.01 0.01 0.01 0.01 0.01 0.01 0.02 0.02 0.02 0.03 0.02 0.02 0.02 0.02 0.02 0.03 0.05 0.06 0.05 0.05 0.04 0.02 0.02 0.02 0.02 0.03 0.03 0.04 0.04 0.05 0.06 0.06 0.07 0.06 0.05 0.05 0.05 0.05 0.04 0.05 0.04 0.04 0.03
0.02 0.02 0.01 0.01 0.01 0.00 0.02 0.03 0.02 0.02 0.03 0.03 0.03 0.03 0.02 0.02 0.03 0.03 0.04 0.04 0.02 0.02 0.02 0.02 0.01 0.01 0.02 0.03 0.03 0.04 0.05 0.05 0.05 0.05 0.05 0.05 0.05 0.04 0.04 0.04 0.04 0.03 0.03 0.03
0.01 0.02 0.01 0.01 0.01 0.02 0.03 0.02 0.02 0.02 0.02 0.03 0.03 0.02 0.02 0.02 0.02 0.02 0.02 0.02 0.02 0.01 0.02 0.02 0.01 0.01 0.02 0.02 0.03 0.04 0.04 0.04 0.05 0.05 0.05 0.04 0.04 0.03 0.03 0.03 0.03 0.03 0.02 0.02
0.01 0.01 0.01 0.02 0.02 0.02 0.02 0.02 0.02 0.02 0.02 0.02 0.03 0.03 0.02 0.02 0.02 0.02 0.02 0.02 0.02 0.01 0.02 0.02 0.02 0.01 0.02 0.03 0.03 0.03 0.04 0.04 0.05 0.05 0.05 0.04 0.03 0.03 0.02 0.02 0.02 0.02 0.02 0.02
0.01 0.01 0.01 0.01 0.01 0.01 0.01 0.02 0.02 0.02 0.02 0.02 0.03 0.02 0.02 0.02 0.02 0.02 0.02 0.03 0.02 0.01 0.01 0.03 0.03 0.03 0.03 0.03 0.04 0.04 0.04 0.04 0.04 0.04 0.04 0.03 0.02 0.02 0.02 0.01 0.02 0.02 0.02 0.02
0.01 0.00 0.00 0.01 0.01 0.01 0.01 0.01 0.01 0.01 0.01 0.02 0.02 0.02 0.02 0.02 0.02 0.02 0.02 0.02 0.02 0.02 0.02 0.03 0.04 0.04 0.04 0.05 0.04 0.04 0.04 0.04 0.04 0.03 0.02 0.02 0.01 0.01 0.01 0.01 0.02 0.02 0.03 0.02
0.01 0.00 0.01 0.00 0.00 0.01 0.01 0.01 0.01 0.01 0.01 0.01 0.02 0.02 0.02 0.02 0.02 0.02 0.02 0.02 0.02 0.02 0.03 0.04 0.04 0.05 0.05 0.05 0.04 0.03 0.03 0.03 0.03 0.02 0.01 0.01 0.01 0.01 0.01 0.01 0.01 0.02 0.02 0.03
0.01 0.00 0.00 0.00 0.00 0.00 0.01 0.01 0.01 0.01 0.01 0.01 0.01 0.02 0.01 0.01 0.02 0.02 0.03 0.02 0.02 0.03 0.03 0.04 0.04 0.04 0.05 0.05 0.03 0.03 0.02 0.02 0.02 0.01 0.01 0.01 0.01 0.01 0.01 0.01 0.01 0.01 0.02 0.02
0.00 0.00 0.00 0.00 0.00 0.00 0.01 0.01 0.01 0.01 0.01 0.01 0.01 0.01 0.01 0.01 0.02 0.02 0.02 0.02 0.02 0.02 0.03 0.03 0.03 0.04 0.04 0.04 0.03 0.02 0.02 0.01 0.01 0.01 0.01 0.01 0.01 0.01 0.01 0.01 0.01 0.01 0.01 0.02
0.00 0.01 0.01 0.01 0.01 0.01 0.01 0.01 0.01 0.01 0.01 0.01 0.01 0.01 0.01 0.01 0.01 0.01 0.02 0.01 0.01 0.01 0.02 0.01 0.01 0.02 0.02 0.02 0.02 0.02 0.01 0.01 0.01 0.01 0.02 0.02 0.02 0.02 0.02 0.02 0.02 0.02 0.02 0.02
0.00 0.00 0.00 0.01 0.01 0.01 0.01 0.00 0.01 0.01 0.01 0.01 0.01 0.01 0.01 0.01 0.01 0.01 0.01 0.01 0.01 0.01 0.01 0.01 0.01 0.01 0.01 0.01 0.02 0.02 0.01 0.01 0.01 0.01 0.02 0.02 0.02 0.02 0.02 0.02 0.02 0.02 0.03 0.02
0.01 0.00 0.00 0.00 0.01 0.01 0.01 0.01 0.01 0.01 0.01 0.01 0.01 0.01 0.01 0.01 0.00 0.00 0.01 0.00 0.00 0.00 0.01 0.01 0.01 0.01 0.01 0.01 0.02 0.02 0.02 0.02 0.02 0.02 0.02 0.02 0.02 0.02 0.02 0.02 0.02 0.02 0.02 0.02
0.01 0.01 0.01 0.01 0.01 0.01 0.01 0.01 0.01 0.01 0.01 0.01 0.01 0.01 0.01 0.01 0.00 0.00 0.00 0.00 0.00 0.00 0.00 0.00 0.01 0.01 0.01 0.01 0.02 0.02 0.02 0.03 0.02 0.02 0.02 0.02 0.02 0.02 0.02 0.02 0.02 0.02 0.02 0.02
0.00 0.00 0.00 0.01 0.01 0.01 0.01 0.01 0.01 0.01 0.01 0.01 0.01 0.01 0.01 0.01 0.00 0.00 0.00 0.00 0.00 0.00 0.00 0.00 0.00 0.00 0.01 0.01 0.02 0.02 0.02 0.02 0.02 0.02 0.02 0.02 0.02 0.02 0.02 0.02 0.02 0.02 0.02 0.02
0.00 0.00 0.00 0.00 0.01 0.01 0.01 0.01 0.01 0.01 0.01 0.01 0.00 0.00 0.00 0.01 0.01 0.00 0.00 0.00 0.00 0.00 0.00 0.00 0.00 0.00 0.01 0.01 0.02 0.02 0.03 0.02 0.02 0.02 0.03 0.02 0.02 0.02 0.02 0.02 0.02 0.02 0.02 0.02
0.00 0.00 0.01 0.01 0.01 0.01 0.01 0.01 0.01 0.01 0.01 0.01 0.01 0.01 0.00 0.00 0.01 0.01 0.01 0.01 0.00 0.00 0.00 0.00 0.00 0.01 0.01 0.01 0.01 0.01 0.02 0.03 0.03 0.03 0.03 0.03 0.02 0.02 0.02 0.02 0.02 0.03 0.03 0.03
0.00 0.01 0.01 0.01 0.01 0.01 0.01 0.01 0.01 0.00 0.00 0.00 0.00 0.00 0.00 0.00 0.01 0.01 0.01 0.01 0.00 0.00 0.00 0.01 0.01 0.01 0.01 0.01 0.01 0.01 0.01 0.02 0.02 0.02 0.02 0.02 0.02 0.02 0.02 0.02 0.02 0.03 0.03 0.03
0.01 0.01 0.01 0.01 0.01 0.01 0.01 0.00 0.00 0.00 0.00 0.00 0.00 0.00 0.00 0.01 0.01 0.01 0.01 0.01 0.00 0.01 0.01 0.01 0.01 0.01 0.01 0.01 0.01 0.01 0.01 0.02 0.02 0.02 0.02 0.02 0.02 0.02 0.02 0.02 0.02 0.03 0.03 0.03
0.01 0.00 0.00 0.00 0.01 0.01 0.01 0.00 0.00 0.00 0.00 0.00 0.00 0.00 0.01 0.01 0.01 0.01 0.01 0.01 0.01 0.01 0.01 0.01 0.01 0.01 0.01 0.01 0.01 0.01 0.01 0.01 0.02 0.02 0.01 0.01 0.01 0.02 0.02 0.02 0.02 0.03 0.03 0.03
0.00 0.00 0.00 0.00 0.00 0.01 0.01 0.01 0.00 0.00 0.00 0.00 0.01 0.01 0.01 0.01 0.01 0.01 0.01 0.01 0.01 0.01 0.01 0.01 0.01 0.01 0.01 0.01 0.01 0.01 0.01 0.01 0.02 0.02 0.02 0.02 0.02 0.02 0.02 0.02 0.02 0.02 0.02 0.02
0.00 0.00 0.00 0.00 0.00 0.01 0.01 0.01 0.01 0.01 0.00 0.01 0.01 0.01 0.01 0.01 0.01 0.01 0.01 0.01 0.01 0.01 0.01 0.01 0.01 0.01 0.01 0.01 0.01 0.01 0.01 0.01 0.01 0.02 0.02 0.02 0.02 0.02 0.02 0.02 0.02 0.02 0.02 0.02
0.00 0.00 0.00 0.00 0.00 0.00 0.00 0.01 0.01 0.01 0.01 0.01 0.01 0.01 0.02 0.02 0.01 0.01 0.01 0.01 0.01 0.01 0.01 0.01 0.01 0.01 0.01 0.01 0.01 0.01 0.01 0.01 0.01 0.01 0.02 0.02 0.02 0.02 0.02 0.01 0.01 0.01 0.02 0.02
MSLP
1014.93 1014.56 1014.20 1013.81 1013.32 1012.69 1011.87 1010.88 1009.71 1008.44 1007.12 1005.84 1004.69 1003.74 1003.04 1002.62 1002.47 1002.58 1002.90 1003.39 1004.01 1004.71 1005.46 1006.26 1007.09 1007.95 1008.83 1009.71 1010.58 1011.40 1012.14 1012.77 1013.26 1013.61 1013.80 1013.84 1013.75 1013.55 1013.27 1012.90 1012.46 1011.96 1011.38 1010.72
1014.30 1013.88 1013.44 1012.94 1012.35 1011.63 1010.77 1009.77 1008.66 1007.48 1006.30 1005.17 1004.17 1003.34 1002.73 1002.33 1002.17 1002.21 1002.44 1002.83 1003.35 1003.99 1004.73 1005.55 1006.45 1007.40 1008.38 1009.37 1010.33 1011.22 1012.01 1012.66 1013.16 1013.51 1013.70 1013.75 1013.69 1013.54 1013.32 1013.03 1012.68 1012.26 1011.78 1011.21
1013.53 1013.02 1012.48 1011.88 1011.21 1010.44 1009.57 1008.62 1007.60 1006.57 1005.56 1004.62 1003.79 1003.10 1002.57 1002.21 1002.02 1002.00 1002.13 1002.42 1002.85 1003.42 1004.13 1004.96 1005.90 1006.91 1007.98 1009.06 1010.09 1011.03 1011.85 1012.52 1013.02 1013.37 1013.57 1013.64 1013.62 1013.52 1013.37 1013.17 1012.91 1012.59 1012.19 1011.71
1012.63 1012.01 1011.38 1010.70 1009.97 1009.19 1008.36 1007.50 1006.63 1005.78 1004.97 1004.23 1003.59 1003.05 1002.61 1002.30 1002.10 1002.01 1002.06 1002.25 1002.58 1003.08 1003.74 1004.55 1005.50 1006.56 1007.67 1008.79 1009.87 1010.84 1011.68 1012.36 1012.87 1013.22 1013.43 1013.53 1013.55 1013.52 1013.44 1013.31 1013.14 1012.91 1012.60 1012.21
1011.61 1010.90 1010.18 1009.45 1008.70 1007.96 1007.21 1006.49 1005.79 1005.15 1004.56 1004.04 1003.58 1003.19 1002.86 1002.59 1002.38 1002.26 1002.23 1002.32 1002.57 1002.99 1003.58 1004.36 1005.29 1006.35 1007.47 1008.61 1009.69 1010.68 1011.52 1012.20 1012.71 1013.08 1013.31 1013.44 1013.51 1013.54 1013.53 1013.48 1013.39 1013.24 1013.00 1012.68
1010.48 1009.68 1008.91 1008.17 1007.45 1006.78 1006.15 1005.59 1005.09 1004.66 1004.30 1003.98 1003.72 1003.47 1003.24 1003.02 1002.83 1002.67 1002.59 1002.61 1002.78 1003.12 1003.65 1004.37 1005.26 1006.28 1007.38 1008.50 1009.57 1010.54 1011.38 1012.05 1012.57 1012.95 1013.21 1013.39 1013.51 1013.59 1013.64 1013.66 1013.63 1013.54 1013.35 1013.08
1009.24 1008.41 1007.62 1006.90 1006.25 1005.67 1005.19 1004.79 1004.49 1004.26 1004.10 1003.99 1003.89 1003.78 1003.65 1003.50 1003.33 1003.16 1003.05 1003.02 1003.13 1003.41 1003.88 1004.54 1005.37 1006.34 1007.39 1008.46 1009.50 1010.44 1011.25 1011.92 1012.45 1012.85 1013.14 1013.36 1013.53 1013.67 1013.77 1013.84 1013.85 1013.79 1013.64 1013.40
1007.95 1007.12 1006.36 1005.69 1005.12 1004.66 1004.31 1004.07 1003.93 1003.88 1003.89 1003.93 1003.98 1003.99 1003.96 1003.88 1003.75 1003.62 1003.51 1003.47 1003.55 1003.79 1004.21 1004.81 1005.58 1006.49 1007.47 1008.48 1009.46 1010.35 1011.14 1011.79 1012.33 1012.75 1013.08 1013.34 1013.56 1013.74 1013.89 1013.99 1014.02 1013.98 1013.84 1013.61
1006.70 1005.90 1005.20 1004.60 1004.12 1003.75 1003.51 1003.38 1003.36 1003.43 1003.57 1003.73 1003.88 1003.99 1004.05 1004.05 1004.00 1003.92 1003.85 1003.84 1003.94 1004.17 1004.56 1005.12 1005.83 1006.66 1007.58 1008.51 1009.42 1010.27 1011.02 1011.66 1012.19 1012.64 1013.00 1013.30 1013.56 1013.79 1013.96 1014.08 1014.13 1014.10 1013.96 1013.73
1005.59 1004.87 1004.24 1003.71 1003.29 1002.98 1002.79 1002.73 1002.77 1002.89 1003.09 1003.31 1003.54 1003.73 1003.88 1003.97 1004.00 1004.01 1004.02 1004.08 1004.22 1004.47 1004.86 1005.40 1006.07 1006.84 1007.68 1008.54 1009.38 1010.17 1010.88 1011.50 1012.03 1012.49 1012.88 1013.22 1013.52 1013.77 1013.97 1014.11 1014.16 1014.13 1013.99 1013.76
1004.77 1004.14 1003.58 1003.09 1002.69 1002.40 1002.21 1002.13 1002.16 1002.28 1002.47 1002.71 1002.98 1003.23 1003.44 1003.62 1003.77 1003.88 1004.00 1004.15 1004.36 1004.67 1005.09 1005.62 1006.25 1006.97 1007.74 1008.53 1009.31 1010.04 1010.70 1011.30 1011.83 1012.30 1012.71 1013.08 1013.40 1013.68 1013.90 1014.05 1014.11 1014.08 1013.94 1013.72
1004.37 1003.82 1003.30 1002.83 1002.41 1002.07 1001.81 1001.66 1001.62 1001.67 1001.81 1002.03 1002.29 1002.57 1002.85 1003.11 1003.36 1003.59 1003.83 1004.09 1004.39 1004.77 1005.22 1005.76 1006.38 1007.05 1007.77 1008.49 1009.20 1009.87 1010.50 1011.07 1011.59 1012.06 1012.48 1012.86 1013.21 1013.51 1013.74 1013.91 1013.98 1013.96 1013.84 1013.64
1004.42 1003.94 1003.44 1002.95 1002.47 1002.04 1001.68 1001.41 1001.24 1001.19 1001.25 1001.41 1001.64 1001.93 1002.25 1002.59 1002.92 1003.26 1003.60 1003.96 1004.36 1004.79 1005.29 1005.84 1006.44 1007.08 1007.74 1008.41 1009.06 1009.68 1010.27 1010.81 1011.31 1011.77 1012.20 1012.59 1012.95 1013.26 1013.51 1013.70 1013.79 1013.79 1013.70 1013.53
1004.91 1004.48 1003.98 1003.44 1002.88 1002.34 1001.85 1001.44 1001.14 1000.97 1000.93 1001.01 1001.20 1001.48 1001.82 1002.20 1002.60 1003.01 1003.44 1003.87 1004.33 1004.81 1005.33 1005.88 1006.46 1007.06 1007.68 1008.30 1008.90 1009.48 1010.02 1010.54 1011.02 1011.47 1011.89 1012.29 1012.65 1012.97 1013.24 1013.44 1013.56 1013.59 1013.54 1013.41
1005.74 1005.33 1004.82 1004.23 1003.59 1002.95 1002.34 1001.80 1001.38 1001.10 1000.96 1000.97 1001.11 1001.36 1001.70 1002.09 1002.52 1002.96 1003.42 1003.89 1004.37 1004.86 1005.37 1005.91 1006.46 1007.03 1007.60 1008.18 1008.74 1009.27 1009.79 1010.27 1010.74 1011.17 1011.59 1011.98 1012.34 1012.66 1012.94 1013.15 1013.30 1013.36 1013.35 1013.27
1006.74 1006.36 1005.84 1005.21 1004.51 1003.79 1003.10 1002.48 1001.97 1001.61 1001.40 1001.34 1001.44 1001.65 1001.96 1002.33 1002.74 1003.18 1003.62 1004.07 1004.52 1004.98 1005.46 1005.95 1006.46 1006.99 1007.52 1008.05 1008.58 1009.09 1009.58 1010.05 1010.49 1010.91 1011.31 1011.69 1012.04 1012.36 1012.64 1012.86 1013.03 1013.12 1013.15 1013.11
1007.74 1007.38 1006.87 1006.24 1005.52 1004.77 1004.05 1003.40 1002.86 1002.46 1002.21 1002.12 1002.18 1002.35 1002.61 1002.92 1003.28 1003.65 1004.03 1004.41 1004.79 1005.19 1005.60 1006.03 1006.48 1006.96 1007.45 1007.95 1008.45 1008.94 1009.41 1009.86 1010.29 1010.70 1011.08 1011.45 1011.78 1012.09 1012.36 1012.58 1012.76 1012.87 1012.92 1012.92
1008.56 1008.24 1007.77 1007.17 1006.48 1005.77 1005.07 1004.45 1003.93 1003.55 1003.30 1003.21 1003.23 1003.36 1003.56 1003.81 1004.07 1004.35 1004.63 1004.90 1005.18 1005.48 1005.79 1006.14 1006.53 1006.95 1007.41 1007.88 1008.36 1008.83 1009.29 1009.74 1010.15 1010.54 1010.90 1011.24 1011.56 1011.84 1012.09 1012.31 1012.48 1012.60 1012.67 1012.68
1009.10 1008.83 1008.42 1007.89 1007.29 1006.66 1006.06 1005.51 1005.07 1004.74 1004.54 1004.45 1004.47 1004.56 1004.70 1004.86 1005.03 1005.19 1005.34 1005.49 1005.65 1005.83 1006.04 1006.31 1006.62 1006.99 1007.40 1007.85 1008.31 1008.77 1009.22 1009.65 1010.05 1010.42 1010.76 1011.07 1011.35 1011.61 1011.84 1012.03 1012.19 1012.31 1012.38 1012.40
1009.34 1009.14 1008.81 1008.38 1007.89 1007.38 1006.90 1006.48 1006.14 1005.90 1005.76 1005.71 1005.73 1005.79 1005.88 1005.95 1006.02 1006.06 1006.09 1006.11 1006.15 1006.22 1006.33 1006.51 1006.76 1007.07 1007.44 1007.86 1008.30 1008.74 1009.18 1009.59 1009.97 1010.31 1010.62 1010.90 1011.14 1011.37 1011.57 1011.74 1011.88 1011.99 1012.05 1012.07
1009.33 1009.20 1008.96 1008.64 1008.28 1007.91 1007.57 1007.28 1007.06 1006.93 1006.86 1006.85 1006.89 1006.93 1006.97 1006.98 1006.95 1006.89 1006.81 1006.73 1006.66 1006.63 1006.66 1006.76 1006.94 1007.20 1007.53 1007.91 1008.32 1008.74 1009.14 1009.53 1009.87 1010.18 1010.45 1010.69 1010.90 1011.09 1011.25 1011.40 1011.52 1011.62 1011.68 1011.70
1009.17 1009.10 1008.95 1008.75 1008.51 1008.27 1008.06 1007.90 1007.80 1007.75 1007.76 1007.80 1007.85 1007.89 1007.90 1007.85 1007.76 1007.63 1007.47 1007.30 1007.15 1007.04 1007.00 1007.04 1007.16 1007.37 1007.65 1007.99 1008.35 1008.73 1009.09 1009.43 1009.74 1010.00 1010.23 1010.42 1010.59 1010.74 1010.88 1011.01 1011.12 1011.20 1011.26 1011.28
1008.97 1008.96 1008.88 1008.77 1008.63 1008.50 1008.41 1008.35 1008.35 1008.38 1008.45 1008.53 1008.60 1008.64 1008.63 1008.55 1008.42 1008.24 1008.03 1007.81 1007.60 1007.44 1007.35 1007.34 1007.41 1007.56 1007.79 1008.07 1008.38 1008.70 1009.01 1009.29 1009.54 1009.75 1009.93 1010.08 1010.21 1010.33 1010.45 1010.55 1010.65 1010.74 1010.80 1010.83
1008.82 1008.85 1008.83 1008.78 1008.72 1008.68 1008.66 1008.68 1008.74 1008.84 1008.95 1009.06 1009.14 1009.18 1009.16 1009.08 1008.93 1008.73 1008.49 1008.24 1008.01 1007.82 1007.69 1007.63 1007.66 1007.76 1007.92 1008.14 1008.38 1008.63 1008.87 1009.08 1009.27 1009.43 1009.55 1009.66 1009.76 1009.85 1009.95 1010.05 1010.15 1010.24 1010.32 1010.37
1008.77 1008.82 1008.83 1008.83 1008.82 1008.82 1008.86 1008.93 1009.03 1009.15 1009.29 1009.41 1009.50 1009.55 1009.53 1009.44 1009.29 1009.08 1008.84 1008.58 1008.34 1008.13 1007.98 1007.89 1007.87 1007.92 1008.02 1008.17 1008.34 1008.51 1008.68 1008.82 1008.94 1009.04 1009.12 1009.19 1009.26 1009.34 1009.42 1009.52 1009.62 1009.73 1009.82 1009.89
1008.81 1008.87 1008.90 1008.91 1008.92 1008.96 1009.01 1009.10 1009.22 1009.36 1009.50 1009.62 1009.71 1009.75 1009.73 1009.65 1009.50 1009.30 1009.06 1008.82 1008.58 1008.36 1008.19 1008.08 1008.02 1008.02 1008.06 1008.14 1008.24 1008.34 1008.44 1008.52 1008.58 1008.63 1008.67 1008.70 1008.75 1008.81 1008.89 1008.98 1009.09 1009.21 1009.32 1009.42
1008.88 1008.94 1008.97 1008.99 1009.02 1009.06 1009.13 1009.22 1009.34 1009.47 1009.60 1009.71 1009.78 1009.81 1009.79 1009.70 1009.56 1009.37 1009.14 1008.91 1008.67 1008.46 1008.28 1008.15 1008.06 1008.02 1008.02 1008.04 1008.08 1008.12 1008.16 1008.18 1008.20 1008.21 1008.22 1008.23 1008.26 1008.31 1008.38 1008.47 1008.59 1008.71 1008.83 1008.94
Thickness
5445 5450 5448 5449 5450 5445 5441 5441 5442 5453 5454 5462 5459 5456 5453 5451 5450 5450 5450 5449 5448 5447 5446 5446 5447 5448 5450 5451 5451 5451 5451 5452 5453 5454 5457 5458 5458 5459 5459 5460 5461 5462 5462 5463
5438 5448 5444 5444 5446 5443 5442 5440 5439 5443 5450 5454 5450 5447 5444 5442 5441 5441 5441 5441 5440 5439 5438 5438 5439 5439 5440 5440 5440 5441 5441 5442 5443 5444 5445 5446 5447 5447 5448 5449 5449 5451 5452 5452
5432 5430 5437 5442 5446 5442 5439 5437 5436 5439 5444 5443 5442 5441 5437 5435 5434 5433 5434 5434 5432 5431 5430 5430 5430 5430 5430 5431 5431 5432 5432 5432 5432 5433 5434 5434 5435 5436 5436 5438 5439 5440 5441 5443
5415 5421 5437 5452 5442 5438 5435 5433 5428 5430 5433 5433 5433 5431 5429 5427 5425 5425 5426 5426 5425 5423 5422 5422 5421 5421 5421 5421 5421 5422 5422 5421 5421 5422 5423 5423 5425 5425 5426 5427 5429 5430 5431 5432
5404 5408 5421 5441 5437 5429 5426 5430 5426 5424 5426 5426 5424 5423 5422 5422 5419 5418 5418 5417 5416 5415 5415 5414 5413 5413 5413 5413 5412 5412 5412 5411 5411 5412 5413 5414 5414 5414 5415 5417 5418 5419 5420 5421
5395 5407 5423 5442 5432 5426 5424 5425 5425 5418 5416 5414 5415 5412 5415 5415 5411 5410 5409 5408 5408 5408 5407 5406 5405 5405 5405 5404 5404 5403 5402 5402 5402 5402 5403 5403 5404 5404 5405 5406 5407 5408 5409 5410
5391 5394 5412 5424 5419 5420 5419 5422 5418 5411 5408 5405 5404 5403 5404 5403 5401 5400 5400 5400 5400 5399 5398 5397 5396 5396 5396 5395 5394 5394 5393 5393 5393 5393 5394 5395 5395 5395 5396 5397 5398 5398 5399 5401
5385 5390 5413 5415 5410 5409 5411 5409 5406 5403 5400 5398 5396 5396 5395 5394 5392 5392 5392 5392 5391 5389 5388 5387 5387 5387 5387 5386 5385 5384 5384 5384 5384 5384 5385 5386 5386 5386 5387 5387 5388 5389 5390 5392
5399 5411 5411 5403 5403 5402 5400 5398 5397 5394 5392 5391 5390 5390 5389 5387 5386 5385 5383 5382 5381 5379 5379 5378 5377 5377 5377 5377 5376 5376 5376 5376 5376 5376 5377 5377 5377 5378 5378 5379 5379 5380 5380 5382
5389 5399 5400 5398 5395 5393 5391 5390 5389 5387 5385 5384 5383 5383 5382 5380 5378 5377 5376 5374 5372 5371 5370 5369 5368 5368 5368 5368 5368 5367 5366 5367 5367 5368 5368 5369 5369 5370 5370 5370 5370 5371 5372 5373
5385 5391 5392 5397 5392 5389 5387 5384 5382 5380 5379 5377 5376 5376 5374 5373 5371 5370 5368 5366 5364 5362 5362 5360 5360 5360 5360 5360 5360 5359 5358 5359 5359 5360 5360 5360 5361 5361 5361 5361 5362 5364 5365 5366
5392 5391 5384 5387 5386 5383 5380 5378 5376 5374 5373 5372 5370 5369 5368 5366 5365 5363 5361 5358 5356 5354 5354 5353 5352 5352 5352 5352 5352 5351 5351 5351 5352 5352 5352 5352 5352 5353 5353 5354 5356 5356 5358 5359
5383 5382 5379 5379 5377 5374 5372 5372 5371 5369 5368 5366 5364 5362 5360 5358 5357 5355 5353 5350 5348 5347 5346 5345 5345 5345 5345 5344 5344 5343 5342 5342 5343 5344 5343 5344 5344 5344 5344 5345 5347 5348 5349 5351
5373 5372 5371 5371 5367 5366 5365 5365 5364 5362 5360 5359 5357 5355 5352 5350 5348 5346 5345 5343 5342 5341 5339 5339 5338 5338 5337 5337 5336 5335 5335 5335 5335 5335 5334 5335 5335 5335 5334 5335 5336 5338 5340 5342
5366 5364 5362 5361 5359 5358 5358 5356 5355 5354 5353 5352 5349 5347 5345 5343 5341 5339 5337 5336 5335 5334 5333 5333 5332 5331 5330 5329 5329 5328 5327 5327 5327 5327 5326 5327 5326 5326 5326 5327 5328 5330 5332 5334
5357 5356 5354 5353 5352 5351 5349 5348 5347 5346 5345 5344 5342 5340 5337 5335 5333 5331 5330 5329 5328 5327 5327 5326 5326 5325 5324 5323 5321 5320 5320 5320 5320 5319 5319 5319 5319 5319 5319 5319 5320 5322 5324 5325
5349 5349 5348 5346 5345 5343 5342 5340 5339 5338 5336 5335 5333 5331 5329 5327 5325 5324 5323 5321 5321 5320 5320 5319 5319 5319 5317 5316 5315 5314 5313 5313 5314 5312 5312 5312 5312 5311 5312 5312 5313 5314 5315 5317
5344 5343 5341 5339 5337 5336 5336 5334 5332 5331 5329 5328 5326 5323 5321 5319 5318 5317 5315 5314 5313 5313 5314 5313 5313 5312 5312 5311 5309 5308 5307 5306 5306 5305 5306 5306 5305 5305 5305 5305 5306 5307 5308 5310
5338 5337 5335 5334 5332 5329 5328 5326 5324 5323 5321 5320 5318 5316 5314 5312 5311 5309 5308 5307 5306 5306 5307 5307 5308 5307 5306 5305 5305 5303 5302 5301 5300 5300 5300 5301 5300 5300 5299 5300 5300 5301 5302 5304
5333 5331 5329 5327 5326 5323 5321 5319 5317 5315 5314 5312 5311 5309 5306 5305 5304 5302 5301 5300 5300 5300 5301 5301 5301 5300 5300 5299 5299 5298 5296 5295 5295 5295 5295 5295 5295 5294 5294 5295 5295 5296 5298 5299
5326 5324 5322 5320 5318 5316 5314 5312 5310 5308 5307 5306 5304 5302 5300 5298 5297 5296 5295 5295 5296 5297 5297 5297 5296 5295 5295 5295 5295 5292 5291 5290 5290 5290 5290 5290 5290 5290 5290 5290 5291 5292 5293 5294
5319 5317 5315 5313 5311 5308 5307 5305 5303 5302 5301 5299 5298 5296 5294 5293 5292 5291 5291 5290 5291 5293 5292 5291 5291 5291 5291 5291 5289 5288 5287 5286 5285 5285 5285 5285 5285 5285 5286 5286 5287 5288 5289 5290
5312 5310 5308 5306 5304 5301 5299 5298 5297 5296 5295 5294 5292 5291 5289 5288 5287 5286 5287 5287 5287 5288 5287 5286 5287 5288 5288 5286 5284 5283 5282 5282 5281 5281 5281 5281 5281 5282 5282 5283 5284 5284 5285 5287
5306 5303 5301 5299 5296 5295 5294 5293 5292 5291 5289 5288 5287 5286 5284 5283 5282 5282 5283 5283 5284 5284 5282 5283 5284 5284 5283 5280 5279 5279 5278 5278 5277 5277 5277 5277 5278 5278 5279 5279 5280 5281 5282 5284
5299 5297 5295 5292 5291 5291 5290 5288 5286 5285 5284 5283 5282 5281 5280 5279 5278 5278 5278 5278 5279 5279 5278 5278 5279 5279 5277 5276 5275 5274 5274 5274 5274 5274 5273 5274 5274 5275 5275 5276 5277 5278 5280 5281
5293 5291 5290 5289 5288 5287 5285 5284 5282 5281 5279 5278 5278 5277 5277 5276 5275 5274 5274 5274 5274 5274 5273 5272 5272 5273 5272 5271 5271 5270 5270 5270 5270 5270 5270 5270 5271 5271 5272 5273 5274 5275 5277 5279
5287 5286 5284 5283 5283 5282 5280 5279 5278 5277 5276 5274 5274 5273 5272 5272 5271 5270 5270 5269 5268 5268 5268 5268 5268 5267 5267 5267 5266 5266 5267 5267 5267 5267 5268 5268 5268 5269 5270 5271 5272 5273 5275 5276